Starlink 31645

operational
NORAD ID: 59264 Int'l Des: 2024-050 Owner: SPXS Country: US Constellation: starlink
LEOCIRCULAR

About Starlink 31645

Description loading...

Live Position

Loading 3D Globe...

Upcoming Passes

Altitude History

Altitude vs Time

uPlot chart will show altitude changes over time

Two-Line Element Set

1 59264U 24050L 25352.80875496 .00020379 00000-0 69813-3 0 9992
2 59264 53.1573 196.7983 0001345 98.7357 261.3796 15.30207761 98167
Epoch: Dec 18, 2025 • Age: 18 hours

Current Status

Altitude 476.3 km
Velocity 7.63 km/s
Sub-Earth Point -3.11°S, 85.44°E
Launch Date Mar 19, 2024
Age 1.7 years
Type internet

Technical Details

Classification Payload
Mass 730.00 kg
Dry Mass 700.00 kg
Total Mass 730.00 kg
Length 0.30 m
Diameter 4.10 m
Span 29.00 m
Shape Box + pan
Manufacturer SPXS
Bus Type Starlink V2M
Phase Status In Orbit
Owner/State SPXS/US

Large Constellations

Loading constellations...